Back to catalog

CZ-6A DEB

AlivePO
NORAD 61466·DEBRIS·🇨🇳 China

Launched Aug 6, 2024 from Taiyuan Satellite Launch Center

Loading…

Next Passes (next 24 hours)

TLE

FreshSource: Space-Track

Epoch: Sep 14, 2026, 10:20 UTC

1 61466U 24140ZY  26257.43086238  .00003007  00000-0  47273-3 0  9996
2 61466  89.0430 262.8232 0112857 275.8704  82.9658 14.68100652107190

Track CZ-6A DEB in real time with AllMySat

Download on the App Store